{"data":{"norad_id":53887,"epoch":"2026-09-20T10:47:35.992896Z","epoch_age_seconds":88363,"freshness":"FRESH","line1":"1 53887U 22119B   26263.44972214  .00000343  00000+0  22807-4 0  9990","line2":"2 53887  53.1608 163.0573 0001348  86.5755 273.5400 15.31700013221178","mean_motion":15.31700013,"eccentricity":0.0001348,"inclination_deg":53.1608,"raan_deg":163.0573,"arg_perigee_deg":86.5755,"mean_anomaly_deg":273.54,"bstar":2.2807e-5,"rev_number":22117,"period_min":94.013187163171,"perigee_km":469.81672785959,"apogee_km":471.66318508706,"semimajor_km":6848.8769564733,"source":"CELESTRAK","updated_at":"2026-09-21T09:00:33.027907Z"}}